Weather in Pyaozerskiy

Russia / Republic of Karelia     65°45′51″N   31°04′59″E
temp.,
°C
wind,
m/s
gust,
m/s
humid.,
%
clouds,
%
prec.,
mm/h
press.,
hPa
HPBL,
m
1 august, sun
sun100:00+11n1189100 0.0 99835
03:00+9se009522 0.0 99910
06:00+10s12895 0.0 99968
09:00+16sse236522 0.0 999615
12:00+20sse345154 0.0 9981480
15:00+18sse256763 0.3 997264
18:00+19s356829 1.4 997938
21:00+16sse2282100 2.8 99624
2 august, mon
mon200:00+13sw3996100 1.3 997218
03:00+13ssw229782 2.3 99739
06:00+13sw249675 0.6 998158
09:00+16wnw238329 0.6 998508
12:00+17wnw2374100 1.2 9991012
15:00+17nnw237666 1.4 1000543
18:00+17n346972 0.4 1000489
21:00+14nne3780100 0.6 1001291
3 august, tue
tue300:00+13nne3886100 0.1 1001369
03:00+12ne3890100 0.4 1001393
06:00+11nne4896100 1.1 1000383
09:00+11nne3797100 1.6 999457
12:00+11nne4797100 0.8 999415
15:00+10n3697100 1.1 999449
18:00+10nnw4795100 0.1 999479
21:00+8nw4993100 0.2 1001575
4 august, wed
wed400:00+7nw4992100 0.1 1002679
03:00+7nw5990100 0.2 1003855
06:00+6nw51093100 0.9 1006989
09:00+8nnw5108166 0.9 10091069
12:00+14nw474525 0.0 10101812
15:00+15wnw574386 0.0 10111987
18:00+15wsw464989 0.1 10111550
21:00+11sw22745 0.5 101222
5 august, thu
thu500:00+8sw388981 0.1 1013145
03:00+8sw379170 0.1 1013137
06:00+8sw258847 0.0 1013130
09:00+13sw3571100 0.1 1013447
12:00+17wsw35398 0.0 10122010
15:00+16sw354792 0.0 10131074
18:00+17sw35465 0.0 10131311
21:00+13w1169100 0.1 101411